Regional Weather Roundup
Issued by NWS Charleston, SC

Current Version | Previous Version | Graphics & Text | Print | Product List | Glossary On
Versions: 1 2 3 4 5 6 7 8 9 10 11 12 13 14 15 16 17 18 19 20 21 22 23 24 25 26 27 28 29 30 31 32 33 34 35 36 37 38 39 40 41 42 43 44 45 46 47 48 49 50
000 ASUS42 KCHS 280327 RWRCHS REGIONAL WEATHER ROUNDUP NATIONAL WEATHER SERVICE CHARLESTON SC 1100 PM EDT MON JUL 27 2015 NOTE: "FAIR" INDICATES FEW OR NO CLOUDS BELOW 12,000 FEET WITH NO SIGNIFICANT WEATHER AND/OR OBSTRUCTIONS TO VISIBILITY. NOT ALL STATIONS ARE QUALITY CONTROLLED BY THE NATIONAL WEATHER SERVICE. USE DATA WITH CAUTION...ESPECIALLY DEWPOINT OBSERVATIONS. SCZ027-030-031-034>040-042>050-280400- ...SOUTHEAST SOUTH CAROLINA... CITY SKY/WX TMP DP RH WIND PRES REMARKS N CHARLESTON PTCLDY 81 76 84 E8 29.97R WATERFRONT PRK N/A 82 78 88 E8 29.94R HX 91 MOUNT PLEASANT LGT RAIN 79 77 94 CALM 29.97S JOHNS ISLAND FAIR 79 77 94 CALM 29.97R PINOPOLIS NOT AVBL MONCKS CORNER FAIR 81 75 83 CALM 29.98S SUMMERVILLE FAIR 77 77 100 CALM 29.98S BEAUFORT MCAS PTCLDY 81 77 88 SE3 29.96R BEAUFORT ARPT FAIR 79 77 94 CALM 29.96R HILTON HEAD IS PTCLDY 81 79 94 CALM 29.97S WALTERBORO PTCLDY 81 75 83 CALM 29.98S ALLENDALE FAIR 81 75 83 CALM 29.96F ...SOUTHERN MIDLANDS AND PEE DEE... CITY SKY/WX TMP DP RH WIND PRES REMARKS GEORGETOWN NOT AVBL KINGSTREE NOT AVBL ORANGEBURG PTCLDY 82 73 74 SE5 29.99R BARNWELL FAIR 82 75 78 S3 29.98S AIKEN FAIR 81 64 57 S6 30.01R MANNING FAIR 77 72 83 CALM 29.99S COLUMBIA PTCLDY 85 72 65 SE6 29.97R HX 91 SUMTER CLOUDY 82 73 73 SE9 29.97R FLORENCE PTCLDY 81 74 79 CALM 30.00R MYRTLE BEACH PTCLDY 81 72 74 E8 30.00R N MYRTLE BEACH PTCLDY 82 74 76 SE5 29.99R $$ GAZ063-065-086>088-099>101-113>116-118-119-134>141-150-280400- ...SOUTHEAST GEORGIA... CITY SKY/WX TMP DP RH WIND PRES REMARKS SAVANNAH ARPT PTCLDY 81 76 84 CALM 29.96R HUNTER AAF CLEAR 80 80 98 N2 29.94R FORT STEWART CLEAR 79 75 89 CALM 29.94R STATESBORO PTCLDY 80 77 92 CALM 29.97S SYLVANIA MOCLDY 81 76 86 CALM 29.98S CLAXTON FAIR 77 75 94 CALM 29.96S ...CSRA...CENTRAL AND FAR SOUTHEAST GEORGIA... CITY SKY/WX TMP DP RH WIND PRES REMARKS THOMSON PTCLDY 82 73 72 CALM 30.01R AUGUSTA-BUSH PTCLDY 79 69 71 SE5 29.95R AUGUSTA-DANIEL PTCLDY 87 65 47 SE5 29.97R SWAINSBORO FAIR 82 75 78 SE3 29.98S VIDALIA HAZE 81 73 78 CALM 29.97R VSB 1/4 EASTMAN FAIR 79 72 79 CALM 29.98S HAZLEHURST FAIR 81 79 94 CALM 29.95S HX 91 ALMA CLEAR 79 76 90 CALM 29.95R WAYCROSS CLEAR 80 80 99 CALM 29.94S HX 90 JESUP FAIR 79 77 94 CALM 29.95S BAXLEY FAIR 81 79 94 CALM 29.95F BRUNSWICK CLEAR 77 77 100 CALM 29.95S SAINT SIMONS CLEAR 81 77 88 CALM 29.94R $$ SCZ027-028-034-036>038-045-046-048>050-GAZ119-141-280400- ...LAKE AND SUPPLEMENTAL COASTAL OBSERVATIONS... STATION/POSITION TIME TEMP WIND PRES WAVE SWELL AIR SEA DIR/SP/G HT/PER HT/PER/DIR (UTC) (F) (DEG/KT/KT) (MB) (FT/S) (FT/S/D) UPR LAKE MARION NOT AVBL WINYAH BAY 0245 82 100/ 7 1014.0S LAKE MURRAY 0200 88 80/ 4/ 6 1013.5R ACE BASIN NERRS NOT AVBL FORT PULASKI 0300 83 85 60/ 6/ 7 1014.7R SAPELO ISLAND 0300 79 40/ 2 1014.0S $$ ANZ835-935-AMZ111-154-330-350-352-354-370-450-454-472-280400- ...C-MAN AND BUOY OBSERVATIONS... STATION/POSITION TIME TEMP WIND PRES WAVE SWELL AIR SEA DIR/SP/G HT/PER HT/PER/DIR (UTC) (F) (DEG/KT/KT) (MB) (FT/S) (FT/S/D) BUOY 41004 0250 83 84 110/ 8/ 10 1014.0R 3/ 6 2/ 6 BUOY 41008 0250 81 82 110/ 2/ 4 1013.9R 2/ 8 2/100/ 8 FOLLY BEACH CMAN 0300 82 80/ 8/ 10 1014.9R CAPERS NEARSHORE 0208 81 90/ 8/ 10 1014.7R FRIPP NEARSHORE 0200 83 90/ 6/ 8 1013.9R STATION/POSITION TIME TEMP WIND PRES WAVE SWELL AIR SEA DIR/SP/G HT/PER HT/PER/DIR (UTC) (F) (DEG/KT/KT) (MB) (FT/S) (FT/S/D) 5E ST. MARYS GA 0221 81 N/A 2/11 FRYING PAN BUOY 0250 83 83 120/ 10/ 12 1015.5R 4/ 6 3/100/ 6 BUOY 41025 NOT AVBL CAPE LOOKOUT NC 0300 81 110/ 11/ 12 1015.7F BUOY 41002 0250 82 82 230/ 16/ 17 1015.7F 5/ 6 2/110/11 BUOY 41010 0220 84 84 190/ 12/ 14 1015.6R ST AUGUSTINE FL 0300 79 81 200/ 5/ 6 1014.7S $$

USA.gov is the U.S. government's official web portal to all federal, state and local government web resources and services.